Torna al catalogo

FENGYUN 1C DEB

AttivoSSO
NORAD 31984·DEBRIS·🇨🇳 China

Lanciato May 10, 1999 da Taiyuan Satellite Launch Center

Loading…

Prossimi Passaggi (prossime 24 ore)

TLE

AggiornatoSource: Space-Track

Epoca: Sep 12, 2026, 05:29 UTC

1 31984U 99025CPM 26255.22857679  .00000402  00000-0  19204-3 0  9991
2 31984  98.5623 257.0755 0063605 151.3641 209.1055 14.23355546982630

Traccia FENGYUN 1C DEB in tempo reale con AllMySat

Download on the App Store